www.pogodaiklimat.ru

ПОГОДА в Саммит Ли, MO

  • Прогноз погоды в Саммит Ли
  • Монитор погоды в Саммит Ли
  • Климат в Саммит Ли

АРХИВ ПОГОДЫ в Саммит Ли

Время (UTC), дата Ветер
(напр.,м/с)
 
Видим.   Явления Облачность Т
(С)
Тd
(С)
f
(%)
Тe
(С)
Тes
(С)
Комфортность

P
(гПа)

Po
(гПа)
Тmin
(С)
Tmax
(С)
R
(мм)
SD
(см)
10:53 21.08   16 км  гроза  5/2 1650 м
[средняя] 
+25.0  +22.8  88  +33  +33  очень
душно 
1015.3    +24.4  +26.1  1.0   
11:16 21.08 С  16 км  слабый дождь  8/2 630 м
[средняя] 
+25.0  +22.8  88  +33  +33  очень
душно 
  980.4         
11:31 21.08 С  16 км    10/8 480 м
[средняя] 
+25.0  +22.8  88  +33  +33  очень
душно 
  981.1         
11:53 21.08 СВ  16 км    8/8 420 м  +24.4  +21.7  85  +31  +31  очень
душно 
1016.6  981.1         
12:19 21.08 С  16 км    8/8 270 м  +24.4  +21.7  85  +31  +31  очень
душно 
  981.7         
12:39 21.08 СВ  16 км    5/5 360 м  +23.9  +21.1  84  +30  +31  очень
душно 
  981.7         
12:53 21.08 СВ  16 км  гроза  8/8 300 м  +23.9  +21.7  88  +31  +31  очень
душно 
1017.6  982.1         
13:01 21.08 В  16 км  гроза  5/5 270 м  +23.9  +21.1  84  +30  +32  очень
душно 
  981.7         
13:12 21.08 СВ  16 км    2/2 270 м  +23.9  +20.6  82  +30  +32  очень
душно 
  980.8         
13:53 21.08 ЮВ  16 км    ясно  +23.9  +21.1  84  +30  +33  очень
душно 
1016.5  981.1         
14:30 21.08   16 км  гроза  2/0 3000 м
[средняя] 
+23.9  +20.6  82  +30  +40  очень
душно 
  980.8         
14:45 21.08 В  16 км    5/0 2100 м
[средняя] 
+23.9  +21.1  84  +30  +34  очень
душно 
  980.1         
14:53 21.08 ЮВ  16 км  слабый дождь  8/2 1110 м
[средняя] 
+23.9  +20.6  82  +30  +32  очень
душно 
1015.6  980.1         
15:53 21.08 ЮВ  16 км    ясно  +27.2  +22.2  74  +35  +46  очень
душно 
1016.0  980.8         
16:53 21.08 В  16 км    2/0 3600 м
[средняя] 
+27.2  +22.2  74  +35  +44  очень
душно 
1016.5  981.1  +23.3  +27.8     
17:53 21.08 СЗ  16 км    5/5 750 м  +27.8  +21.1  67  +35  +42  очень
душно 
1017.2  981.7         
18:53 21.08 СВ  16 км    5/5 750 м  +27.8  +21.1  67  +35  +41  очень
душно 
1016.4  981.1         
19:37 21.08 В  16 км  слабый дождь  8/8 720 м
[средняя] 
+27.2  +21.1  69  +34  +37  очень
душно 
  979.8         
19:44 21.08 СВ  16 км    5/2 780 м
[средняя] 
+27.2  +21.1  69  +34  +41  очень
душно 
  979.5         
19:53 21.08 СВ  16 км    2/2 720 м  +27.2  +21.7  72  +35  +42  очень
душно 
1014.4  979.1      0.3   
20:53 21.08 СВ  16 км    2/2 840 м  +26.7  +21.7  74  +34  +40  очень
душно 
1015.0  979.5         
21:53 21.08 СВ  16 км  слабый дождь  5/2 1320 м
[средняя] 
+25.6  +21.1  76  +32  +33  очень
душно 
1013.6  978.2         
22:53 21.08 СВ  16 км  слабый дождь  8/0 2400 м
[средняя] 
+25.0  +20.6  77  +31  +32  очень
душно 
1014.9  979.5  +25.0  +29.4  0.3   
23:53 21.08 СВ  16 км    2/0 3300 м
[средняя] 
+24.4  +21.1  82  +31  +31  очень
душно 
1014.4  978.8         
00:53 22.08 СВ  16 км  слабый дождь  8/2 1380 м
[средняя] 
+24.4  +21.7  85  +31  +31  очень
душно 
1013.8  978.5         
01:53 22.08 СВ  16 км    8/8 900 м  +24.4  +21.7  85  +31  +31  очень
душно 
1015.1  979.5         
02:53 22.08 СВ  16 км    5/5 360 м
[средняя] 
+24.4  +21.1  82  +31  +31  очень
душно 
1015.6  980.1         
03:53 22.08 В  16 км    8/8 300 м  +23.3  +20.6  85  +31  +31  очень
душно 
1015.2  979.8         
04:53 22.08 В  16 км    10/8 390 м
[средняя] 
+22.8  +20.6  87  +30  +30  очень
душно 
1015.5  979.8  +22.8  +25.0     
05:43 22.08 В  16 км  гроза, слабый дождь  10/2 180 м
[средняя] 
+22.8  +21.1  90  +30  +30  очень
душно 
  979.1         
05:53 22.08 В  13 км  гроза, слабый дождь  10/2 240 м
[средняя] 
+22.8  +21.7  94  +31  +31  очень
душно 
1014.5  979.1         
06:05 22.08 В  16 км    10/8 240 м
[средняя] 
+22.8  +21.7  94  +31  +31  очень
душно 
  979.1         
06:12 22.08 В  16 км    10/8 180 м
[средняя] 
+22.8  +21.7  94  +31  +31  очень
душно 
  979.1         
06:53 22.08 СВ  16 км  слабый дождь  10/8 210 м
[средняя] 
+23.3  +21.1  87  +31  +31  очень
душно 
1014.5  979.1         
07:01 22.08 В  16 км  гроза  10/8 240 м
[средняя] 
+23.3  +21.7  91  +32  +32  очень
душно 
  979.1         
07:14 22.08 В  16 км  гроза  10/10 120 м  +22.8  +21.7  94  +31  +31  очень
душно 
  979.1         
07:22 22.08 В  16 км    10/10 180 м  +22.8  +21.7  94  +31  +31  очень
душно 
  979.1         
07:31 22.08 В  16 км    10/10 180 м  +22.8  +21.1  90  +30  +30  очень
душно 
  979.1         
07:53 22.08 СВ  16 км    10/10 180 м  +22.8  +21.1  90  +30  +30  очень
душно 
1014.8  979.1      2.3   
08:33 22.08 СВ  16 км    10/10 120 м  +22.2  +20.6  91  +29  +29  очень
душно 
  979.1         
08:44 22.08 В  16 км    10/10 150 м  +22.2  +20.6  91  +29  +29  очень
душно 
  978.8         
08:53 22.08 В  14 км    10/10 120 м  +22.2  +20.6  91  +29  +29  очень
душно 
1014.4  978.8         
09:11 22.08 В  11 км    10/10 90 м  +22.2  +20.6  91  +29  +29  очень
душно 
  979.1         
09:41 22.08 В  16 км    10/10 90 м  +22.2  +20.6  91  +29  +29  очень
душно 
  978.8         
09:53 22.08 В  16 км    10/10 120 м  +22.2  +20.6  91  +29  +29  очень
душно 
1014.4  978.8         
10:05 22.08 В  16 км    10/10 120 м  +22.2  +20.6  91  +29  +29  очень
душно 
  979.1         
10:14 22.08 В  16 км    10/8 120 м
[средняя] 
+22.2  +20.6  91  +29  +29  очень
душно 
  979.1         
10:53 22.08 СВ  13 км    10/10 90 м  +22.2  +20.6  91  +29  +29  очень
душно 
1015.3  979.8  +22.2  +23.3  2.3   

 

Местоположение метеостанции Lee`s Summit Municipal Airport: широта 38.9597 долгота -94.3717 высота над уровнем моря 306 м.

В архиве по умолчанию представлена погода в Саммит Ли за последние 1-2 суток. Обновление информации о фактической погоде в базе происходит ежечасно! Архивные данные за месяц целиком и за предыдущие месяцы Вы можете получить, выбрав интересующий диапазон дат из раскрывающегося списка и нажав кнопку "Ввод!".

Внимание! Архив погоды МЕТАР в базе сайта хранится не более 60 дней. Нет смысла пытаться выбрать более раннюю дату.

Внимание! Время в таблицах - всемирное. Для получения местного времени необходимо прибавить поправку, которая в Саммит Ли равна -6 ч.

Ветер - указаны скорость ветра в м/с и направление, откуда дует ветер: С - северный, СВ - северо-восточный, В - восточный, ЮВ - юго-восточный, Ю - южный, ЮЗ - юго-западный, З - западный, СЗ - северо-западный.
Видимость - горизонтальная дальность видимости в метрах или километрах. При видимости от 1 до 10 км при отсутствии осадков обычно наблюдается дымка, при ухудшении видимости до 1 км и менее - туман. В сухую погоду видимость может ухудшаться дымом, пылью или мглою.
Атмосферные явления - указаны явления, наблюдавшиеся в указанный момент времени.
Облачность - указаны через наклонную черту верхняя и нижняя облачность в баллах и высота нижней границы облаков в метрах. Внимание: облачность, как и прочие метеорологические величины в США измеряются автоматическими метеостанциями. Указанные значения в баллах носят условный характер и показывают процент времени, в течение которого, в среднем, лазерный луч высотомера отражался от облаков обратно.
T - Температура воздуха - температура, измеренная на высоте 2 м над землей.
Td - Температура точки росы - температура, при понижении до которой содержащийся в воздухе водяной пар достигнет насыщения.
f - Относительная влажность воздуха - влажноcть воздуха, измеренная на высоте 2 м над землей.
Te - Эффективная температура - температура, которую ощущает одетый по сезону человек в тени. Характеристика душности погоды. При расчете учитывается влияние влажности воздуха и скорости ветра на теплоощущения человека.
Tes - Эффективная температура на солнце - температура, которую ощущает человек, с поправкой на солнечный нагрев. Характеристика знойности погоды. Зависит от высоты солнца над горизонтом, облачности и скорости ветра. Ночью, в пасмурную погоду, а также при ветре 12 м/с и более поправка равна нулю.
P - Атмосферное давление - приведенное к уровню моря атмосферное давление.
Po - Атмосферное давление - измеренное на уровне метеостанции атмосферное давление.
Tmin - Минимальная температура - минимум температуры воздуха на высоте 2 м над землей.
Tmax - Максимальная температура - максимум температуры воздуха на высоте 2 м над землей.
R - Количество осадков - Количество выпавших осадков за 3 или 6 часов, мм.
SD - Снежный покров - Высота снежного покрова, см.